Regional Weather Roundup
Issued by NWS

Home | Current Version | Previous Version | Graphics & Text | Print | Product List | Glossary On
Versions: 1 2 3 4 5 6 7 8 9 10 11 12 13 14 15 16 17 18 19 20 21 22 23 24 25 26 27 28 29 30 31 32 33 34 35 36 37 38 39 40 41 42 43 44 45 46 47 48 49 50
000
ASUS43 KMKX 050300
RWRWI

WISCONSIN REGIONAL WEATHER ROUNDUP
NATIONAL WEATHER SERVICE MILWAUKEE/SULLIVAN WI
900 PM CST SUN DEC 04 2016

NOTE: "FAIR" INDICATES FEW OR NO CLOUDS BELOW 12,000 FEET WITH NO
SIGNIFICANT WEATHER AND/OR OBSTRUCTIONS TO VISIBILITY.

WIZ001-002-006>008-014>016-023>028-050400-
NORTHWEST WISCONSIN

CITY           SKY/WX    TMP DP  RH WIND       PRES   REMARKS
SUPERIOR ARPT  CLOUDY    33  33 100 SW7       29.66F FOG     WCI  27
ASHLAND        CLOUDY    33  30  88 S6        29.68F WCI  28
HAYWARD        CLOUDY    33  31  92 SW8       29.68F WCI  26
SIREN          CLOUDY    34  32  93 W9G16     29.71S WCI  27
CUMBERLAND     CLOUDY    32  32 100 SW10      29.71S WCI  24
RICE LAKE      CLOUDY    33  32  95 SW6       29.73S WCI  28
CHETEK         CLOUDY    33  32  97 SW5       29.72F WCI  28
LADYSMITH      CLOUDY    33  32  98 S7        29.73S WCI  26
EAU CLAIRE     CLOUDY    34  32  92 SW6       29.75R WCI  29
MENOMONIE      CLOUDY    34  34 100 SW5       29.74F WCI  30
NEW RICHMOND   CLOUDY    34  34  99 W9        29.74S WCI  27
OSCEOLA        CLOUDY    35  35 100 W8        29.77S WCI  29
$$

WIZ003>005-009-010-017-018-050400-
NORTH CENTRAL WISCONSIN

CITY           SKY/WX    TMP DP  RH WIND       PRES   REMARKS
MANITOWISH WTR CLOUDY    29  29 100 S7        29.68F FOG     WCI  22
ARBOR VITAE    CLOUDY    32  31  95 SW7       29.69F FOG     WCI  25
WOODRUFF       CLOUDY    32  31  95 SW7       29.69F FOG     WCI  25
RHINELANDER    CLOUDY    30  30 100 SW7       29.70F FOG     WCI  23
EAGLE RIVER    CLOUDY    29  29 100 SW7       29.70F FOG     WCI  22
LAND O LAKES   LGT SNOW  29  28  96 S5        29.71S WCI  24
PHILLIPS       CLOUDY    30  30 100 SW9       29.69F WCI  22
TOMAHAWK       CLOUDY    29  28  96 CALM      29.72F FOG
MEDFORD        LGT SNOW  30  29  96 S8        29.72F WCI  22
MERRILL        CLOUDY    30  30 100 SW5       29.74F FOG     WCI  25
$$

WIZ029-030-035-036-043>047-050400-
CENTRAL WISCONSIN

CITY           SKY/WX    TMP DP  RH WIND       PRES   REMARKS
WAUSAU         CLOUDY    31  30  96 S7        29.73F FOG     WCI  24
MOSINEE        NOT AVBL
MARSHFIELD     CLOUDY    31  30  96 SW10      29.74F WCI  22
STEVENS POINT  MIX PCPN  29  29 100 SW7       29.78F WCI  22
WAUPACA        CLOUDY    33  31  92 CALM      29.80F
WAUTOMA        MIX PCPN  31  30  96 SW7       29.82S FOG     WCI  24
WISC RAPIDS    CLOUDY    32  31  96 SW9       29.78F WCI  24
CAMP DOUGLAS   NOT AVBL
$$

WIZ011>013-019>022-031-037>040-048>050-050400-
NORTHEAST WISCONSIN

CITY           SKY/WX    TMP DP  RH WIND       PRES   REMARKS
ANTIGO         CLOUDY    28  28 100 SW8       29.73F FOG     WCI  20
SHAWANO        CLOUDY    33  31  92 SW5       29.79F WCI  28
OCONTO         CLOUDY    32  31  96 CALM      29.79F
STURGEON BAY   LGT SNOW  32  31  96 SW8       29.79F FOG     WCI  25
GREEN BAY      CLOUDY    34  32  92 SW10      29.80F WCI  26
MANITOWOC      LGT SNOW  34  30  86 SW6       29.82F FOG     WCI  29
APPLETON       CLOUDY    30  30 100 SW9       29.79F WCI  22
CLINTONVILLE   CLOUDY    32  30  93 SW7       29.79F WCI  26
OSHKOSH        CLOUDY    31  28  89 SW8       29.81S WCI  23
$$

WIZ032>034-041-042-053>061-050400-
SOUTHWEST WISCONSIN

CITY           SKY/WX    TMP DP  RH WIND       PRES   REMARKS
LA CROSSE      CLOUDY    35  31  85 S9        29.81S WCI  28
SPARTA         PTCLDY    32  31  98 SW6       29.81F WCI  26
VIROQUA        CLOUDY    32  32  99 SW10      29.81F WCI  24
BOSCOBEL       CLOUDY    35  31  85 SW6       29.88R WCI  30
PRAIRIE DU CHI CLOUDY    33  30  88 W7        29.87R WCI  27
PLATTEVILLE    CLOUDY    33  33 100 SW12      29.86S WCI  24
$$

WIZ056-057-062-063-064-067-068-050400-
SOUTH CENTRAL WISCONSIN

CITY           SKY/WX    TMP DP  RH WIND       PRES   REMARKS
REEDSBURG      CLOUDY    32  32 100 W8        29.83R WCI  25
BARABOO/DELLS  CLOUDY    31  30  95 W8        29.82S FOG     WCI  24
LONE ROCK      NOT AVBL
MINERAL POINT  CLOUDY    34  34 100 W12       29.84S WCI  25
MADISON        CLOUDY    32  29  88 SW5       29.84F WCI  27
MIDDLETON      CLOUDY    33  33 100 SW6       29.84F WCI  27
WATERTOWN      CLOUDY    31  31 100 SW6       29.84F FOG     WCI  25
MONROE         FOG       32  32 100 SW12      29.85S VSB 1/2 WCI  23
JANESVILLE     CLOUDY    32  32 100 VRB6      29.87S FOG     WCI  26
$$

WIZ051-052-058>065-066-070>072-050400-
SOUTHEAST WISCONSIN

CITY           SKY/WX    TMP DP  RH WIND       PRES   REMARKS
MILWAUKEE      CLOUDY    32  29  88 SW7       29.85S FOG     WCI  26
WAUKESHA       CLOUDY    28  28 100 SW7       29.85F FOG     WCI  21
MILWAUKEE/TIMM CLOUDY    30  28  93 SW5       29.85F FOG     WCI  25
RACINE         PTCLDY    31  29  92 W6        29.87S FOG     WCI  25
BURLINGTON     CLOUDY    28  28 100 CALM      29.86S FOG
KENOSHA        CLEAR     28  26  92 SW9       29.86S FOG     WCI  19
FOND DU LAC    CLOUDY    32  28  85 SW8       29.82F WCI  25
SHEBOYGAN      CLOUDY    31  29  92 SW8       29.81F FOG     WCI  23
WEST BEND      MIX PCPN  32  32 100 SW7       29.83S WCI  26
JUNEAU         CLOUDY    30  29  96 SW7       29.84F FOG     WCI  23
$$

LSZ147-162-050400-
LAKE SUPERIOR

STATION/POSITION TIME  TEMP    WIND        PRES    WAVE
                       AIR SEA DIR/SP/G            HT/PER
                 (UTC) (F)     (DEG/KT/KT) (MB)    (FT/S)
DEVILS ISLAND    0200   34     200/  7/ 12 1005.9F
PORT WING        0240   34     180/  9/ 12 1005.1F
SAXON HARBOR     0230   34     190/  5/ 11 1005.4F
$$

LMZ867-665-643>646-050400-
LAKE MICHIGAN

STATION/POSITION TIME  TEMP    WIND        PRES    WAVE
                       AIR SEA DIR/SP/G            HT/PER
                 (UTC) (F)     (DEG/KT/KT) (MB)    (FT/S)
CHAMBERS ISLAND  0240   34     190/  5/ 12 1008.5F
NORTHPORT PIER   0240   33     190/  2/  4 1008.8F
SISTER BAY       0153   33        CALM       N/A
ALGOMA LAKESHORE 0221          240/  6/  9   N/A
KEWAUNEE LAKESHO 0230   33     220/  5/  8 1009.1F
SHEBOYGAN LAKESH 0200   33     230/ 10/ 11 1010.7F
PORT WASHINGTON  0240   33     250/  3/  8 1011.5S
MILWAUKEE LAKESH 0230   33     250/  9/ 12   N/A
KENOSHA   LAKESH 0200   33     250/  4/  8 1011.2
$$

TC  - TEMPERATURE IN CELSIUS
VSB - VISIBILITY IN STATUTE MILES
WCI - WIND CHILL INDEX
HX  - HEAT INDEX




USA.gov is the U.S. government's official web portal to all federal, state and local government web resources and services.